Temp_Advection
nan nan nan nan nan nan nan nan nan nan nan nan nan nan nan nan nan nan nan nan nan nan nan nan nan nan nan nan nan nan nan nan nan nan nan nan nan nan nan nan nan nan nan nan nan nan nan nan nan nan nan nan nan nan
nan 0 0 0 -0 -0 -0 -0 0 0 0 0 -0 0 -0 -0 0 0 0 0 0 -0 -0 -0 -0 -0 -0 -0 0 -0 -0 0 0 -0 -0 -0 -0 -0 -0 -0 0 0 -0 -0 -0 -0 0 -0 -0 -0 -0 -0 -0 nan
nan 0 0 -0 -0 0 0 0 0 -0 -0 -0 -0 -0 -0 0 0 0 0 0 0 -0 -1 -1 -1 0 0 -0 -0 -0 -0 -0 0 0 0 -0 -0 -0 -0 -0 -0 -0 -0 0 -0 -0 -0 -0 -0 -0 -0 -0 -0 nan
nan -0 -0 -0 -0 -0 -0 -0 -0 -0 -0 -0 -0 -0 0 0 0 0 0 0 -0 -0 -0 -1 -0 -0 -0 -0 0 0 0 0 -0 0 -0 0 -0 0 0 -0 -0 -0 -0 -0 -0 -0 0 0 0 -0 -0 -0 -1 nan
nan -0 -0 -0 -0 -0 -0 -0 -0 0 -0 0 -0 -0 0 0 -0 -0 0 -0 -0 0 -0 -1 -1 -0 0 0 0 0 0 0 0 -0 -0 -0 -0 0 -0 -0 -0 -0 0 -0 -0 -0 0 -0 0 0 -0 0 -0 nan
nan -0 0 0 -0 -0 0 0 0 0 0 0 0 0 0 0 0 0 -0 -0 0 0 0 -0 -1 -0 0 0 0 0 0 0 0 -0 -0 -0 -0 -0 0 -0 -0 -1 -0 1 -0 -1 -0 -0 -0 0 -0 0 -1 nan
nan 0 0 -0 -0 -0 -0 -0 0 0 0 0 0 0 0 0 0 0 -0 0 0 0 0 0 -1 -0 -0 0 0 0 0 0 0 0 0 -0 0 1 -0 -1 -0 -1 -1 -0 1 0 -1 -1 -0 -1 0 -0 -1 nan
nan 0 0 -0 -0 0 0 -0 -0 0 0 0 0 0 0 0 0 0 -0 -0 0 -0 0 -0 -0 -1 0 0 0 0 0 1 0 1 0 -0 -0 0 -0 -1 -1 -0 0 -1 -1 0 -1 -1 -0 -1 -0 0 0 nan
nan 0 0 -0 0 -0 -0 -0 -0 -0 0 0 0 -0 0 0 0 0 -0 0 0 -0 -0 0 -0 -0 -0 -0 -0 0 0 -0 -0 0 -0 0 -0 -0 -1 -0 -1 -1 -0 -1 -0 -0 -0 -0 -1 -0 0 0 -0 nan
nan -0 -0 -0 -0 0 0 -0 -0 -0 -0 -0 0 -0 -0 0 0 0 0 0 0 0 0 -0 -0 -0 -0 -0 -0 -0 -0 -0 -0 -0 -0 -0 -1 -2 -0 -0 -0 -0 -1 0 0 -0 -1 -0 -1 -0 1 0 0 nan
nan -0 0 -0 -0 -0 -0 0 -0 -0 0 -0 -0 -0 0 0 0 0 -0 -0 0 -0 -0 -0 0 -0 -0 -0 -0 -0 0 -0 -0 -0 -0 -0 -0 -0 -0 -0 -0 0 -0 -0 -0 -0 -0 0 0 1 0 0 0 nan
nan -0 -0 -0 0 0 -0 0 0 0 0 -0 -0 -0 -0 -0 -0 -0 -0 -0 0 -0 -0 -0 -0 -0 -0 0 -0 -0 -0 0 -0 -0 -0 -0 -0 -0 -0 -1 -1 -0 0 0 -0 -0 -1 0 0 0 0 0 0 nan
nan -0 -0 0 -0 0 0 0 0 0 0 0 -0 -0 0 -0 -0 -0 -0 -0 0 -0 -0 -0 -0 -0 0 0 -0 -0 -0 -0 0 0 -0 -0 -0 -0 -0 -0 -0 0 0 -0 0 0 0 1 1 0 0 0 0 nan
nan -0 0 -0 -0 0 0 0 0 0 0 0 -0 -0 0 -0 -0 -0 -0 -0 -0 -0 0 0 0 0 0 0 -0 -0 -0 -0 -0 -0 -0 0 -0 -0 0 1 0 0 0 -0 -0 0 -0 0 0 0 0 0 0 nan
nan 0 0 0 -0 -0 -0 -0 0 -0 0 0 -0 0 -0 -1 -0 -0 -0 0 -0 0 0 0 -0 -0 0 -0 -0 -0 -0 -0 0 -0 -0 -0 0 0 1 1 1 0 -0 -0 -0 -0 -0 -0 0 0 0 0 0 nan
nan -0 -0 -0 -0 -0 -0 -0 -0 0 0 0 0 0 -0 -0 -0 -0 -0 -0 0 0 0 -0 -0 -0 -0 -0 -0 -0 -0 0 -0 -0 0 -0 0 0 0 -0 0 1 1 0 0 0 0 -0 0 0 0 -0 0 nan
nan -0 -0 -0 -0 -0 -0 -0 -0 0 0 0 -0 -1 -0 0 -1 -0 0 0 0 0 -0 -0 -0 -0 0 -0 -0 -0 -0 -0 -0 -0 -0 -0 -0 -0 -0 -0 0 -0 0 0 0 0 0 0 -0 -0 -0 -0 -0 nan
nan 0 0 -0 -0 -0 -0 0 -0 -0 -0 0 -0 -1 -0 -0 -0 0 0 0 0 -0 -0 0 -0 0 -0 -0 -0 -0 -0 -1 -0 -0 -0 -0 -0 -0 -0 -0 -0 -0 0 0 0 0 0 0 0 0 0 0 0 nan
nan -0 0 0 -0 -0 -0 -0 0 -0 -0 -0 -0 -0 -0 -0 -0 0 0 0 0 0 0 0 0 -0 0 -0 -0 -0 -0 -0 -0 -0 -0 -0 -1 -1 -1 -0 -0 -0 -0 0 0 0 0 0 0 0 0 0 0 nan
nan -0 -0 -0 -0 0 -0 -0 0 0 -0 -0 -0 -0 -0 -0 -0 0 0 0 0 0 0 0 0 -0 -0 -0 -0 0 0 0 -0 -0 -0 -0 0 -0 -1 -1 -1 -0 -0 0 0 0 0 0 0 0 0 0 -0 nan
nan -0 -0 -0 -0 0 -0 -0 -0 -0 -0 -0 -0 -0 -0 0 -0 0 0 0 0 0 0 -0 -0 -0 -0 -0 -0 -0 -0 0 -0 -0 -0 -0 -0 0 -0 -0 -0 -1 -0 -0 -0 0 0 0 0 0 0 0 0 nan
nan -0 -0 -0 0 0 -0 -0 -0 -0 -0 -0 -0 0 0 0 -0 0 0 0 -0 -1 -0 -0 -0 -0 0 -0 -0 -0 -0 -0 -0 -0 -0 -0 -0 -0 -0 -0 -0 -0 -1 -0 0 0 0 1 0 0 0 0 0 nan
nan -0 -0 0 0 -0 -0 -0 -0 0 0 -0 -0 0 -0 -0 -0 0 -0 -0 -0 -0 -0 -0 -0 -0 -0 -0 -0 -0 -0 -0 -0 -0 -0 -0 -0 -0 -0 -0 -0 -0 -0 -0 -0 0 0 0 0 -0 0 0 0 nan
nan -0 -0 -0 -0 -0 -0 -0 -0 -0 -0 -0 -0 -0 -0 -0 -0 -0 -0 -0 -0 -0 -0 -0 -0 -0 -0 -0 -0 -0 -0 -0 -0 -0 -0 -1 -1 -0 -0 -0 -0 -0 -0 -0 -0 -0 -0 -0 -0 0 0 0 0 nan
nan -0 -1 -0 -1 -0 -0 -0 -0 -0 -0 -0 -0 0 -0 0 -0 -0 -0 -0 -0 -0 -0 -0 -0 -0 -0 -0 -0 -0 -0 -0 0 -0 0 0 -0 -1 -0 -0 -0 -0 -0 -0 -0 -0 -0 -0 -0 -0 0 0 0 nan
nan -1 -0 0 -0 -0 -0 -0 -0 -0 0 0 -0 -1 -0 -0 0 -0 -0 -0 -0 -0 -0 -0 -0 -0 -0 -0 -0 -0 -0 0 -0 -0 0 0 0 -0 -0 -0 -0 -0 -0 -0 -0 -0 -0 -0 -0 -0 -0 -0 0 nan
nan -0 -0 -0 -0 0 -1 -1 -1 0 -0 -0 -0 -0 -0 -0 0 -0 -0 -0 -0 -0 -0 -0 -0 -0 -0 -0 -0 -0 0 -0 -0 -0 -0 -0 -0 -0 -0 -0 -0 -0 -0 -0 -0 -0 -0 -0 -0 -0 -0 -0 -0 nan
nan 0 -0 -3 -0 1 0 -1 -0 -0 -0 -0 -0 -0 -0 -0 -0 -0 -0 -0 -0 -0 -0 -0 -0 -0 -0 -0 -0 -0 -0 -0 -0 -0 -0 -0 -0 -0 -0 -0 -0 -0 -0 -0 -0 -0 -0 -0 -0 -0 -0 -0 -0 nan
nan 0 2 -0 -1 -0 0 -0 -0 -0 0 -0 -0 -0 -0 -1 -0 -0 -0 -0 -0 -0 -0 -0 -0 -0 -0 -0 -0 -0 -1 -1 -1 -1 -1 -1 -1 -0 -0 -0 -0 0 0 0 0 0 0 -0 -0 -0 -0 -0 -0 nan
nan -0 0 1 0 -1 -1 0 1 -0 0 0 -0 0 -0 -0 -0 0 0 -0 -0 -0 -0 -0 -0 -0 -0 -0 -0 -0 -0 -0 -1 -1 -1 -1 -1 -1 -1 -1 -0 -0 -0 0 0 0 0 0 -0 -0 -0 -0 -0 nan
nan 0 0 0 -0 -2 -0 -0 -0 -0 -0 0 0 0 -0 -0 -0 -0 -0 -0 -0 -0 -0 -0 -0 -0 -0 -0 -0 -0 -0 -0 -0 -0 -0 -0 -0 -0 -1 -1 -0 -0 -0 -0 -0 -0 -0 -0 -0 -0 -0 -0 -0 nan
nan 0 0 0 -1 -2 -0 -0 -0 -0 -0 -0 -0 0 -0 -0 -0 -0 -0 0 0 -0 -0 -0 -0 -0 -0 0 -0 -0 -0 -0 -0 -0 -0 -0 -0 -0 -0 -0 -0 -0 -0 -0 -0 -0 -0 -0 -0 -0 -0 -0 -0 nan
nan nan nan nan nan nan nan nan nan nan nan nan nan nan nan nan nan nan nan nan nan nan nan nan nan nan nan nan nan nan nan nan nan nan nan nan nan nan nan nan nan nan nan nan nan nan nan nan nan nan nan nan nan nan
Wind_Speed
32 28 23 17 18 18 17 21 25 22 22 16 27 25 22 25 24 24 23 18 17 6 6 8 10 8 6 4 0 4 2 2 2 2 1 2 2 2 3 3 4 2 4 2 3 3 4 3 3 5 1 2 4 6
24 18 12 11 13 14 13 12 20 21 23 16 26 25 21 26 24 25 22 16 18 7 4 6 11 14 13 9 7 5 1 2 2 2 1 1 1 2 2 2 1 2 2 1 3 2 1 7 6 11 10 5 6 8
18 11 6 8 8 13 11 15 19 21 22 21 25 24 22 25 28 20 19 20 15 8 14 18 18 12 14 20 12 4 2 3 2 3 0 1 1 1 1 3 3 1 1 2 3 3 2 3 6 9 10 10 10 9
15 10 2 6 8 11 11 14 19 18 8 26 22 23 18 21 22 14 17 21 18 4 1 6 6 8 5 10 18 16 11 4 3 2 1 1 1 1 2 3 0 3 4 2 3 5 3 7 7 14 9 9 13 12
19 12 7 7 6 8 14 14 22 19 12 26 20 21 15 20 19 13 13 19 18 7 2 7 16 9 8 8 9 12 11 9 3 1 1 2 2 1 2 2 6 3 5 3 4 4 1 10 9 14 2 3 6 11
23 20 15 15 17 16 20 20 19 19 17 21 19 20 16 20 20 17 5 14 23 16 2 3 5 7 9 11 12 12 15 11 6 4 3 4 5 3 2 3 4 9 16 20 6 14 13 15 12 8 3 6 18 28
26 19 15 15 17 17 17 16 17 22 22 20 19 21 18 11 9 4 2 3 19 17 3 3 4 3 4 10 15 16 15 12 8 4 4 5 7 10 2 10 7 14 20 24 25 21 20 19 13 16 18 15 11 10
26 29 26 21 19 18 20 29 26 24 23 22 20 19 17 12 11 6 7 6 13 8 2 0 3 5 0 2 4 7 7 10 8 9 4 3 2 5 6 12 16 26 31 32 30 26 25 25 19 19 17 20 9 15
23 24 22 24 22 24 24 23 25 26 25 23 21 20 14 6 3 4 5 13 14 2 3 2 2 3 5 2 1 2 2 1 4 3 3 6 3 6 13 12 21 23 17 21 19 17 18 17 17 18 21 19 23 17
19 18 17 16 19 21 22 27 26 25 24 24 20 4 4 4 11 9 5 2 3 2 2 1 2 2 3 3 2 1 2 2 2 4 2 3 7 25 24 27 28 27 24 23 18 17 16 11 15 16 19 24 23 15
22 24 25 26 26 26 25 24 23 23 21 3 3 4 12 11 5 2 1 2 1 2 3 5 6 2 3 2 3 4 2 2 3 4 3 3 6 5 10 19 28 31 29 28 15 9 12 12 11 23 22 18 15 10
28 28 31 29 27 22 17 15 17 6 1 2 9 12 4 1 1 3 1 2 2 2 3 2 3 6 2 2 1 3 2 1 5 1 2 3 3 17 21 22 19 15 22 28 21 12 16 10 17 17 16 13 9 5
21 20 18 21 22 21 20 19 16 14 6 4 2 3 1 1 4 3 2 3 2 2 3 1 1 1 2 4 2 1 3 4 3 2 3 2 12 21 21 18 6 11 15 22 19 12 7 13 15 10 9 9 5 3
15 13 12 14 14 11 8 6 3 1 1 1 2 2 3 3 3 4 3 3 4 5 8 6 2 2 4 2 2 2 4 2 3 3 4 4 14 25 25 14 16 21 23 23 15 11 12 7 7 9 7 4 3 3
4 5 5 3 4 2 1 1 3 3 2 2 2 2 4 6 6 5 8 6 12 12 13 3 5 7 3 3 2 3 3 4 2 2 2 9 11 12 23 19 18 19 18 14 14 11 7 10 9 6 5 3 2 1
6 5 6 7 6 7 8 8 8 5 2 3 4 0 4 2 3 3 8 9 6 8 6 4 2 2 4 2 3 5 3 2 2 0 6 11 17 20 18 14 13 13 15 14 11 6 7 7 5 4 1 1 1 1
8 9 14 13 12 10 10 10 3 2 3 3 4 8 10 8 8 7 6 8 6 4 2 1 3 4 2 3 3 1 4 4 6 12 15 14 12 13 13 14 7 4 3 4 4 4 4 2 2 4 2 2 2 4
11 9 11 13 14 11 8 2 3 3 5 8 2 5 9 10 10 11 8 6 4 3 1 2 3 2 3 2 2 2 6 13 12 10 12 11 9 8 6 7 7 6 3 4 4 5 3 3 2 1 2 3 3 5
12 11 9 10 12 7 4 2 3 3 6 6 9 14 11 9 11 12 9 7 7 6 4 3 2 2 1 2 2 5 7 7 7 9 10 12 14 11 8 7 6 7 5 5 7 7 5 5 4 3 2 4 5 6
11 12 8 9 8 3 3 3 4 4 4 3 6 8 7 6 9 8 7 9 7 3 2 2 1 1 1 4 6 5 6 7 10 12 15 16 17 14 12 11 11 8 6 5 8 8 8 6 3 3 5 6 8 9
13 9 11 9 5 6 4 3 5 5 5 5 7 5 6 9 8 9 8 8 5 2 1 1 3 3 4 5 4 5 5 4 8 9 12 17 17 15 14 14 11 10 9 8 8 11 12 10 6 6 7 8 9 9
7 10 10 6 4 4 6 7 6 6 5 6 8 5 5 2 2 2 5 2 4 7 7 6 5 2 3 4 6 5 4 4 6 6 8 12 15 14 16 14 14 12 12 10 13 13 15 13 8 8 11 10 10 9
8 9 5 3 3 3 5 3 4 3 1 3 3 2 2 2 1 4 3 5 4 7 6 5 4 4 3 5 6 8 9 10 10 10 11 11 10 10 11 11 10 9 7 5 2 3 5 6 7 9 12 12 9 9
6 3 3 5 6 3 6 2 4 4 3 3 5 5 3 2 3 2 3 3 5 5 7 7 6 5 4 6 10 11 11 12 13 13 12 12 11 9 10 9 5 5 6 6 6 4 4 6 6 7 6 6 6 7
2 7 6 6 7 7 5 5 3 1 2 3 3 3 2 3 1 2 2 3 8 9 9 8 7 8 9 10 11 12 10 12 16 17 13 11 9 9 5 4 2 5 7 8 7 5 5 4 4 4 3 5 5 7
5 7 4 6 5 5 4 4 4 5 5 3 3 9 6 1 2 3 2 3 6 8 8 9 8 7 7 9 13 16 17 15 13 13 16 9 9 6 8 7 6 6 9 8 8 7 7 7 6 5 4 4 5 6
3 3 4 7 7 8 5 6 12 4 3 5 4 5 3 3 2 2 5 9 6 5 7 7 6 6 8 9 8 9 13 13 12 12 10 8 8 9 10 9 9 8 9 10 9 8 7 6 7 7 7 5 5 5
2 3 0 14 5 5 3 3 2 4 3 8 9 3 6 4 4 5 6 6 6 6 5 5 6 7 7 8 9 10 10 9 6 6 10 10 10 9 8 8 8 10 10 10 11 12 13 7 6 6 6 7 7 7
3 8 9 4 2 4 3 3 2 1 5 8 2 2 3 4 7 4 7 7 6 5 6 5 7 5 3 7 9 10 12 14 14 14 15 16 15 13 14 13 12 11 12 11 11 12 13 12 8 6 5 7 7 5
3 6 3 2 2 3 4 7 20 24 23 18 8 7 6 7 8 7 7 7 8 10 9 8 7 7 9 9 9 9 11 14 15 15 16 17 18 18 17 16 14 13 12 11 13 13 11 8 7 7 6 5 5 6
5 3 4 3 4 10 16 20 22 21 16 12 11 14 10 9 13 13 10 8 7 7 9 12 14 15 16 16 16 15 14 15 15 15 13 13 15 16 16 16 14 12 11 12 13 12 11 7 6 7 7 7 5 3
4 3 2 2 5 13 15 10 12 4 3 3 3 5 13 6 4 3 13 9 6 8 9 8 10 11 13 14 14 14 14 16 17 17 16 14 14 14 15 14 14 11 10 10 11 11 10 7 7 8 7 6 6 4
5 6 4 4 4 5 6 10 4 5 3 1 5 7 7 4 3 5 4 10 10 9 6 5 6 5 5 9 12 13 15 16 16 16 15 13 12 13 13 13 13 14 13 11 9 8 8 8 7 7 8 8 6 2
Wind_Direction
309 299 294 267 233 247 245 243 227 223 220 234 199 202 212 206 198 202 203 207 199 199 242 249 269 246 277 258 272 304 16 310 26 41 293 330 355 342 305 334 308 287 185 181 199 153 197 218 227 165 63 94 164 194
314 303 279 228 233 236 228 220 203 208 208 225 193 196 209 200 186 197 201 196 200 224 264 254 266 273 254 260 304 316 276 327 226 73 290 250 4 333 0 295 37 279 12 355 341 32 41 340 315 313 333 290 232 230
332 305 243 222 239 210 210 208 202 195 213 195 186 192 204 184 184 196 187 180 183 234 275 270 274 295 254 243 248 265 313 331 21 14 194 360 329 87 313 272 343 12 40 339 345 177 281 320 286 287 275 268 278 277
16 30 174 202 217 197 211 187 183 180 191 171 178 185 194 176 173 182 195 185 191 172 228 280 306 275 266 243 233 237 266 246 295 313 108 157 221 159 263 278 302 222 356 350 283 268 216 199 348 345 320 253 250 253
33 40 79 123 146 173 172 170 165 168 170 166 170 176 179 170 176 189 201 194 192 205 232 286 312 263 249 235 225 227 238 249 245 354 74 240 257 32 276 341 257 201 222 192 225 268 104 313 336 357 277 148 241 285
43 59 80 98 102 116 141 153 164 166 161 156 161 163 166 169 179 177 160 211 205 209 303 322 305 273 234 235 233 234 238 242 224 187 220 248 231 168 229 241 244 228 254 260 267 282 302 307 301 308 114 120 263 278
49 54 82 95 106 116 133 148 159 147 144 148 149 158 162 161 163 116 116 247 196 197 219 308 313 275 279 249 235 232 233 234 236 225 224 213 216 197 214 254 239 267 279 277 277 284 290 285 264 280 276 272 282 240
54 56 82 86 101 114 119 124 135 134 138 141 142 148 148 147 123 81 38 103 173 172 191 45 276 319 42 227 211 211 218 232 222 226 229 207 217 197 240 233 238 239 246 252 261 261 260 275 272 265 262 290 191 154
55 58 80 83 90 107 117 127 133 127 135 137 136 134 121 116 108 88 55 150 179 165 167 206 209 255 354 34 334 185 231 355 241 225 232 184 202 224 231 217 220 225 220 238 256 261 275 265 261 266 264 263 190 158
60 58 72 88 91 109 116 119 123 129 131 130 126 107 79 114 126 127 130 177 196 228 233 229 236 289 343 4 326 346 12 233 294 244 194 218 244 248 260 249 244 236 235 255 250 261 277 286 267 222 213 188 176 169
73 80 94 101 100 104 108 112 118 119 122 121 81 72 135 139 146 156 99 111 234 322 217 239 221 218 245 113 231 215 228 238 262 256 211 243 265 259 289 281 265 246 237 236 248 245 298 298 196 164 159 158 160 169
91 90 92 95 94 93 88 111 128 126 35 70 120 116 128 80 48 82 290 301 205 246 217 197 239 217 327 307 127 218 239 314 253 339 256 264 332 329 303 289 270 258 228 218 224 270 296 245 193 167 158 153 154 160
90 93 98 101 103 103 102 107 109 99 78 51 75 85 128 10 43 117 249 292 318 235 228 192 297 234 263 244 222 249 245 239 324 256 251 312 324 329 337 334 292 208 193 185 184 165 117 139 149 172 164 148 159 207
70 76 91 120 115 100 78 60 58 112 337 301 152 42 143 287 245 197 206 195 249 248 243 221 214 196 238 241 218 247 245 292 273 291 50 311 339 351 12 50 104 128 143 149 150 197 186 140 169 171 160 155 210 270
30 46 66 155 186 203 272 302 320 323 275 255 166 230 209 227 252 251 260 270 288 280 256 216 225 202 210 242 216 252 258 239 256 65 286 328 0 14 30 67 101 126 142 125 133 145 143 187 184 181 189 219 263 289
321 316 334 325 297 288 302 310 303 296 252 238 232 22 214 80 293 265 264 265 297 279 266 228 268 229 218 206 208 218 262 334 70 33 344 18 29 32 39 56 88 125 147 162 192 198 175 189 217 228 274 324 286 326
326 335 321 323 307 288 297 313 294 235 240 239 255 239 252 274 249 267 276 284 272 317 259 191 248 219 229 220 197 47 0 15 34 39 44 37 31 24 26 38 56 75 116 146 156 167 179 179 124 120 87 19 309 300
307 312 311 325 329 315 311 270 264 257 252 236 200 249 223 240 266 280 277 261 236 225 251 232 297 271 264 297 36 28 16 19 16 4 359 3 9 20 19 9 7 7 296 239 221 207 212 187 198 236 270 266 282 289
331 322 302 307 316 318 306 270 240 267 258 265 262 266 266 260 272 274 264 233 240 248 267 269 256 248 349 55 13 15 11 19 351 9 8 358 348 344 329 316 318 321 305 253 235 230 228 228 241 258 262 281 288 289
318 327 317 310 304 284 277 261 247 260 271 280 269 274 266 258 271 277 261 231 219 207 217 224 234 69 25 32 16 353 355 3 4 4 7 8 2 352 348 338 316 302 293 250 233 219 209 226 286 302 292 284 281 288
309 314 310 317 282 226 266 270 251 246 279 266 286 289 268 269 260 258 257 223 183 208 247 110 92 80 59 8 329 336 336 335 352 352 346 344 352 354 350 338 317 309 287 255 244 224 226 251 267 275 283 289 287 284
318 314 310 288 247 234 251 234 246 290 265 264 288 251 257 286 266 203 149 154 66 25 22 42 51 52 99 69 47 36 13 329 321 316 322 334 344 350 351 352 343 325 330 260 242 249 241 243 245 279 291 291 284 279
331 328 302 258 251 240 266 258 249 245 270 267 270 254 260 264 207 200 78 58 91 35 36 42 50 54 59 31 1 347 343 338 332 322 318 322 341 337 344 355 354 353 8 22 351 246 249 257 266 284 285 274 256 261
329 305 319 329 339 332 317 295 281 286 301 353 343 311 357 302 268 75 89 76 67 48 44 41 37 33 21 12 8 359 351 350 352 355 344 313 300 322 344 341 344 10 19 1 349 327 306 304 301 295 273 252 256 257
358 14 33 350 6 353 339 341 301 312 24 319 282 268 269 265 78 59 96 112 65 44 28 27 41 32 25 15 13 13 12 357 347 341 0 341 316 304 323 3 334 5 358 356 356 356 348 327 329 310 278 259 273 253
67 25 55 356 328 339 332 317 328 341 303 264 289 324 321 30 71 88 82 67 72 27 13 15 6 7 6 9 9 8 4 355 347 342 349 350 352 351 348 351 340 352 360 0 360 359 349 340 344 336 305 280 270 255
53 314 10 13 310 294 318 307 298 280 338 358 353 328 319 286 102 89 89 43 45 25 358 357 4 4 360 360 357 4 13 7 14 21 41 70 59 43 34 35 28 14 358 2 354 335 319 324 330 320 314 308 293 266
72 359 144 329 313 294 208 283 302 360 24 356 328 293 348 26 33 24 38 14 356 345 351 3 11 19 41 43 21 7 8 17 13 74 82 75 65 53 45 31 8 355 355 350 345 344 347 339 305 296 299 296 290 288
318 324 337 324 298 284 254 219 259 247 320 328 285 284 355 57 31 40 17 13 15 35 51 57 56 60 59 21 10 10 9 11 15 19 17 7 360 353 354 350 343 333 332 336 336 334 333 330 328 331 302 290 268 276
270 319 286 284 159 252 253 294 298 302 302 291 259 271 86 82 63 60 59 58 59 58 50 46 42 31 27 20 26 29 18 14 12 10 0 353 344 340 339 335 328 326 329 331 332 331 335 327 323 320 311 305 295 276
279 249 242 243 249 273 302 312 313 310 294 284 263 220 156 124 76 57 59 61 63 64 71 62 53 46 41 34 25 18 12 5 356 349 343 338 339 341 344 342 332 330 327 328 331 333 335 323 325 321 314 307 305 304
254 238 181 269 275 294 314 324 317 293 286 359 22 152 144 139 107 70 31 40 63 69 63 50 44 44 37 37 36 33 18 5 359 354 349 345 342 340 340 338 341 327 320 322 328 334 340 324 321 325 326 321 313 312
281 274 270 284 302 324 326 324 295 307 314 81 35 44 94 109 112 161 20 18 24 23 25 31 25 21 6 354 6 7 3 1 1 359 354 345 336 334 333 331 330 338 331 313 314 322 329 338 331 321 318 316 317 298
Height
1309 1304 1301 1300 1305 1309 1312 1316 1321 1326 1332 1336 1340 1348 1353 1357 1363 1369 1373 1378 1383 1384 1384 1384 1385 1385 1386 1385 1385 1379 1379 1377 1376 1379 1378 1372 1370 1369 1363 1356 1355 1349 1348 1349 1351 1352 1358 1353 1355 1352 1353 1354 1355 1358
1299 1296 1295 1297 1301 1305 1309 1311 1317 1322 1328 1333 1338 1345 1350 1355 1361 1366 1372 1376 1380 1383 1382 1381 1381 1381 1382 1383 1383 1380 1380 1377 1377 1381 1381 1376 1370 1369 1367 1372 1357 1353 1358 1357 1355 1354 1354 1353 1353 1349 1352 1353 1357 1358
1293 1291 1293 1296 1299 1303 1307 1311 1316 1322 1327 1330 1338 1344 1349 1353 1360 1365 1370 1375 1379 1382 1380 1378 1375 1377 1377 1378 1380 1382 1379 1377 1376 1375 1375 1375 1374 1374 1374 1367 1360 1357 1358 1359 1357 1356 1353 1354 1355 1353 1352 1352 1352 1355
1294 1292 1293 1296 1299 1303 1306 1310 1316 1322 1327 1332 1339 1345 1349 1354 1360 1365 1369 1373 1378 1380 1380 1375 1373 1372 1373 1373 1374 1377 1378 1378 1378 1377 1377 1380 1378 1372 1372 1369 1365 1364 1362 1361 1358 1355 1354 1355 1352 1346 1342 1346 1349 1351
1300 1297 1297 1298 1301 1304 1308 1313 1319 1325 1329 1335 1341 1346 1351 1356 1362 1366 1369 1372 1376 1381 1379 1374 1372 1370 1370 1371 1372 1374 1376 1376 1376 1377 1378 1379 1373 1373 1369 1368 1362 1360 1359 1364 1363 1353 1350 1349 1349 1347 1347 1344 1346 1349
1310 1306 1304 1304 1306 1307 1311 1317 1323 1328 1333 1338 1344 1350 1354 1357 1361 1366 1369 1372 1373 1377 1380 1379 1371 1368 1369 1370 1371 1372 1373 1375 1375 1374 1374 1371 1369 1371 1373 1368 1355 1354 1353 1352 1349 1350 1350 1350 1351 1351 1351 1350 1349 1348
1319 1315 1313 1313 1314 1316 1319 1323 1327 1332 1338 1343 1348 1353 1357 1362 1364 1368 1370 1369 1370 1377 1380 1378 1372 1367 1367 1367 1368 1370 1370 1371 1372 1372 1370 1367 1365 1366 1366 1359 1352 1350 1350 1347 1347 1349 1347 1346 1348 1346 1347 1347 1343 1342
1329 1325 1323 1323 1323 1324 1325 1330 1335 1339 1344 1349 1353 1358 1362 1365 1367 1369 1369 1370 1372 1376 1378 1380 1374 1368 1366 1365 1366 1366 1366 1366 1366 1364 1361 1360 1359 1359 1354 1340 1339 1340 1339 1340 1338 1341 1341 1341 1343 1342 1339 1340 1343 1343
1339 1337 1335 1335 1334 1335 1337 1339 1342 1346 1350 1354 1359 1363 1366 1369 1370 1371 1372 1373 1375 1379 1377 1377 1376 1376 1366 1365 1365 1365 1364 1367 1360 1359 1355 1355 1350 1345 1329 1328 1329 1330 1332 1330 1332 1334 1334 1334 1333 1335 1337 1339 1343 1341
1347 1345 1343 1343 1343 1344 1346 1348 1351 1354 1357 1361 1365 1367 1369 1371 1372 1374 1376 1376 1377 1376 1376 1376 1373 1374 1369 1366 1366 1367 1363 1365 1363 1351 1347 1346 1333 1322 1321 1321 1321 1323 1326 1326 1328 1328 1329 1329 1327 1327 1330 1334 1337 1340
1353 1351 1351 1352 1353 1354 1356 1358 1360 1362 1365 1366 1366 1368 1372 1373 1375 1375 1376 1377 1377 1376 1374 1371 1370 1371 1367 1370 1369 1365 1366 1362 1358 1344 1342 1331 1319 1313 1314 1313 1310 1313 1317 1321 1324 1325 1325 1325 1325 1326 1330 1334 1336 1339
1362 1362 1361 1362 1363 1364 1365 1366 1366 1367 1367 1367 1367 1371 1374 1375 1375 1377 1381 1377 1376 1372 1369 1368 1367 1367 1366 1366 1365 1363 1362 1358 1351 1342 1340 1326 1314 1313 1306 1301 1301 1303 1306 1314 1321 1323 1322 1323 1328 1329 1330 1331 1334 1336
1372 1370 1370 1369 1369 1370 1370 1371 1370 1370 1370 1370 1371 1372 1374 1377 1380 1383 1389 1377 1380 1368 1366 1365 1367 1366 1366 1365 1363 1362 1359 1354 1344 1343 1335 1328 1320 1313 1303 1295 1291 1294 1301 1311 1318 1322 1326 1326 1327 1331 1331 1331 1334 1335
1379 1378 1377 1376 1375 1374 1374 1374 1373 1372 1372 1371 1371 1379 1379 1384 1377 1373 1370 1368 1366 1365 1365 1364 1365 1366 1363 1363 1359 1358 1353 1349 1340 1331 1328 1329 1325 1315 1305 1298 1296 1299 1306 1312 1318 1320 1324 1328 1330 1331 1331 1332 1334 1335
1383 1381 1380 1379 1377 1376 1376 1375 1374 1373 1372 1371 1371 1378 1373 1367 1366 1366 1365 1366 1364 1362 1361 1361 1361 1361 1360 1358 1355 1353 1350 1334 1330 1339 1337 1331 1326 1320 1313 1311 1310 1312 1315 1318 1320 1320 1322 1328 1330 1331 1331 1332 1332 1333
1384 1382 1381 1380 1378 1376 1374 1373 1372 1371 1370 1369 1367 1367 1364 1366 1365 1363 1362 1361 1360 1358 1358 1358 1356 1354 1355 1353 1351 1348 1336 1327 1336 1337 1335 1332 1329 1325 1322 1321 1320 1321 1321 1321 1322 1322 1324 1326 1329 1330 1330 1330 1331 1332
1384 1383 1381 1378 1376 1374 1373 1371 1370 1369 1368 1366 1363 1360 1361 1361 1360 1359 1358 1358 1358 1358 1356 1355 1351 1346 1346 1344 1335 1338 1338 1336 1339 1338 1336 1334 1331 1329 1328 1327 1326 1326 1326 1326 1325 1326 1327 1329 1329 1330 1332 1333 1332 1331
1382 1381 1379 1377 1374 1373 1371 1370 1369 1367 1364 1361 1361 1357 1357 1357 1356 1355 1355 1355 1356 1355 1354 1353 1352 1348 1349 1338 1338 1344 1343 1342 1342 1340 1338 1336 1334 1331 1330 1329 1328 1327 1327 1327 1327 1328 1329 1330 1330 1331 1331 1332 1331 1331
1380 1378 1377 1376 1374 1373 1371 1370 1369 1366 1361 1358 1356 1355 1354 1353 1352 1351 1352 1352 1353 1353 1353 1351 1350 1347 1345 1346 1346 1345 1345 1343 1342 1339 1339 1337 1334 1331 1329 1328 1327 1326 1325 1325 1326 1327 1328 1328 1329 1329 1329 1329 1329 1328
1378 1377 1375 1374 1373 1373 1371 1368 1367 1364 1359 1356 1354 1353 1352 1350 1349 1348 1348 1349 1350 1350 1350 1348 1346 1346 1346 1346 1346 1345 1344 1343 1342 1340 1338 1336 1333 1330 1328 1326 1325 1324 1323 1323 1324 1324 1326 1327 1327 1327 1327 1327 1326 1326
1376 1374 1373 1372 1372 1371 1370 1365 1363 1360 1357 1354 1351 1350 1348 1346 1344 1344 1344 1345 1347 1346 1346 1346 1347 1346 1346 1346 1345 1344 1343 1342 1341 1340 1337 1334 1332 1329 1327 1325 1322 1321 1320 1320 1320 1321 1323 1323 1324 1324 1323 1323 1322 1322
1373 1372 1371 1369 1369 1368 1365 1362 1361 1358 1357 1351 1349 1347 1345 1343 1342 1342 1342 1343 1346 1350 1349 1348 1348 1346 1346 1346 1345 1343 1343 1341 1340 1338 1337 1335 1331 1329 1327 1324 1322 1319 1318 1316 1317 1317 1318 1319 1320 1320 1320 1319 1319 1318
1372 1371 1369 1368 1366 1364 1362 1360 1357 1355 1354 1349 1347 1345 1342 1340 1339 1341 1342 1346 1350 1352 1350 1349 1349 1348 1347 1346 1345 1343 1341 1340 1338 1336 1335 1333 1331 1329 1327 1324 1322 1320 1318 1316 1316 1316 1316 1317 1316 1316 1316 1315 1316 1316
1372 1371 1369 1368 1366 1362 1360 1358 1356 1354 1350 1349 1350 1344 1342 1341 1340 1340 1345 1350 1352 1352 1351 1349 1349 1348 1347 1346 1344 1343 1341 1339 1336 1334 1332 1330 1329 1327 1326 1324 1322 1321 1319 1318 1317 1316 1315 1314 1314 1313 1313 1313 1313 1314
1374 1376 1375 1375 1372 1371 1367 1363 1358 1354 1356 1355 1351 1347 1343 1340 1341 1343 1347 1351 1352 1352 1351 1350 1349 1349 1348 1346 1345 1343 1340 1338 1335 1332 1330 1328 1327 1326 1325 1324 1322 1321 1319 1318 1316 1315 1314 1313 1313 1312 1311 1312 1312 1312
1380 1382 1382 1381 1379 1375 1372 1370 1365 1362 1360 1357 1351 1347 1342 1341 1343 1344 1349 1352 1352 1352 1351 1351 1350 1349 1348 1347 1345 1342 1339 1337 1334 1331 1329 1327 1326 1326 1325 1324 1322 1321 1319 1318 1317 1316 1315 1314 1312 1311 1311 1310 1310 1310
1388 1387 1384 1384 1383 1380 1377 1372 1368 1364 1362 1360 1360 1355 1349 1345 1343 1349 1352 1353 1353 1353 1352 1351 1350 1349 1348 1346 1345 1343 1341 1337 1334 1332 1329 1328 1328 1327 1326 1325 1323 1322 1320 1318 1317 1315 1314 1313 1312 1311 1310 1310 1309 1308
1385 1385 1387 1383 1381 1380 1380 1376 1371 1369 1368 1368 1365 1358 1351 1351 1356 1357 1356 1355 1354 1353 1352 1351 1349 1349 1347 1346 1344 1343 1341 1339 1337 1334 1332 1330 1329 1328 1327 1326 1325 1323 1321 1319 1317 1315 1313 1311 1310 1309 1309 1308 1308 1307
1385 1385 1383 1381 1380 1378 1374 1373 1371 1369 1369 1369 1368 1363 1358 1360 1361 1359 1357 1355 1354 1352 1351 1351 1350 1349 1347 1346 1345 1343 1341 1339 1336 1334 1332 1331 1329 1328 1326 1325 1323 1321 1319 1318 1316 1314 1312 1310 1308 1307 1307 1306 1306 1305
1384 1384 1383 1381 1381 1379 1372 1371 1369 1366 1365 1364 1365 1363 1363 1363 1362 1360 1358 1356 1355 1354 1353 1352 1351 1349 1347 1345 1344 1343 1342 1340 1338 1337 1334 1332 1330 1328 1325 1323 1321 1319 1317 1316 1314 1312 1310 1308 1308 1307 1306 1305 1304 1303
1382 1381 1380 1379 1376 1371 1368 1366 1362 1359 1356 1355 1355 1357 1360 1362 1362 1362 1360 1359 1357 1356 1355 1353 1352 1350 1347 1344 1343 1341 1340 1339 1337 1336 1334 1332 1329 1327 1324 1322 1319 1317 1316 1314 1312 1310 1308 1307 1306 1306 1305 1304 1303 1302
1380 1379 1378 1379 1373 1369 1366 1363 1359 1356 1354 1353 1352 1352 1356 1358 1362 1363 1363 1361 1359 1357 1356 1355 1353 1351 1350 1348 1347 1344 1343 1340 1337 1334 1332 1330 1328 1326 1323 1321 1319 1316 1314 1313 1311 1309 1307 1306 1305 1305 1304 1303 1302 1301
1377 1376 1375 1375 1371 1368 1366 1364 1359 1356 1354 1353 1354 1353 1354 1357 1360 1362 1362 1361 1359 1357 1356 1355 1354 1352 1351 1349 1347 1345 1343 1341 1338 1335 1332 1329 1327 1324 1322 1320 1317 1315 1312 1311 1309 1308 1307 1306 1305 1304 1304 1303 1302 1301